Vertical_Velocity
0 0 0 -0 -0 -0 -0 -1 -0 -0 0 0 -0 -1 -1 -1 -1 -1 -2 -1 -2 -2 -3 -3 -2 -3 -3 -2 -2 -2 -2 -2 -1 -1 -1 -1 -1 -1 -1 -1 -1 -1 -1 -1 -1 -1 -1 -1 -1 -1 -1 -0 -1 -1 -1 0 -1 -2 -3 -2 -2 -2 -2 -2 -2 -0 1 1 1
0 0 0 0 0 0 0 -0 -0 -0 -1 -1 -0 -1 -2 -2 -2 -2 -2 -2 -2 -3 -3 -4 -3 -3 -3 -3 -2 -2 -3 -3 -2 -2 -1 -1 -1 -1 -1 -1 -1 -1 -1 -1 -1 -1 -1 -1 -1 -2 -1 -0 0 0 0 1 1 -1 -2 -2 -1 -1 -2 -3 -2 -1 -0 -1 -0
0 -0 -0 -0 -1 -1 -1 -1 -1 -1 -1 -1 -2 -2 -2 -3 -3 -3 -2 -3 -3 -3 -4 -4 -4 -4 -3 -3 -3 -2 -2 -3 -3 -3 -2 -2 -1 -1 -1 -1 -1 -1 -1 -1 -1 -1 -1 -1 -2 -2 -2 -1 -0 -0 0 1 1 -0 -2 -2 -1 -1 -2 -3 -2 -1 -1 -2 -1
0 -0 -1 -1 -1 -1 -1 -1 -1 -1 -1 -1 -1 -2 -2 -2 -2 -3 -3 -3 -3 -3 -4 -4 -4 -4 -3 -3 -3 -3 -2 -2 -3 -3 -3 -2 -1 -1 -1 -1 -1 -1 -1 -0 -1 -1 -1 -1 -2 -2 -2 -1 -1 -1 -1 -0 -0 -1 -1 -1 -1 -1 -2 -3 -2 -1 -2 -3 -2
-0 -0 -0 -1 -1 -1 -1 -1 -1 -1 -1 -1 -1 -1 -2 -2 -2 -3 -3 -3 -3 -3 -3 -3 -3 -3 -2 -2 -2 -2 -2 -2 -2 -2 -2 -2 -1 -1 -1 -1 -1 -1 -1 -1 -1 -1 -2 -2 -2 -2 -1 -1 -1 -1 -1 -1 -1 -2 -1 -0 0 -0 -1 -2 -2 -1 -1 -2 -2
-0 -1 -1 -1 -1 -1 -1 -1 -1 -1 -1 -1 -1 -1 -2 -2 -2 -2 -2 -2 -2 -2 -1 -2 -2 -2 -2 -1 -1 -1 -1 -1 -1 -1 -2 -2 -1 -1 -1 -1 -1 -1 -1 -1 -1 -1 -2 -2 -3 -2 -1 -1 -1 -1 -0 -0 -2 -2 -2 -0 1 1 1 -1 -1 -1 -1 -2 -1
-0 -1 -1 -1 -1 -1 -1 -1 -1 -1 -1 -1 -1 -2 -2 -2 -1 -1 -1 -1 -1 -1 -1 -1 -1 -1 -1 -1 -1 -1 -1 -1 -1 -1 -1 -2 -1 -1 -1 -1 -1 -1 -1 -1 -2 -2 -2 -2 -2 -2 -2 -1 -1 -1 -0 0 -1 -2 -2 -1 1 2 2 -0 0 0 -0 -1 -0
-0 -0 -0 -1 -1 -1 -1 -1 -1 -1 -1 -2 -1 -2 -2 -2 -2 -2 -2 -1 -1 -1 -1 -1 -1 -1 -1 -1 -1 -2 -2 -2 -2 -1 -1 -1 -1 -1 -1 -1 -1 -1 -1 -1 -1 -2 -2 -2 -2 -2 -2 -2 -2 -1 -0 0 -1 -2 -2 -2 0 2 3 1 1 1 0 -1 -1
-0 -0 -0 -1 -1 -1 -1 -1 -1 -1 -1 -1 -2 -2 -2 -2 -2 -2 -2 -2 -1 -1 -1 -1 -1 -1 -1 -2 -2 -2 -2 -2 -2 -2 -1 -1 -1 -1 -1 -1 -1 -1 -0 -0 -1 -2 -2 -2 -1 -1 -1 -1 -2 -2 -1 -0 -1 -2 -2 -1 -1 1 2 3 2 1 0 -0 -1
-0 -0 -0 -0 -1 -1 -1 -1 -1 -1 -1 -1 -1 -1 -1 -2 -2 -2 -2 -2 -2 -2 -2 -2 -2 -2 -2 -2 -2 -2 -2 -2 -2 -2 -1 -1 -1 -1 -1 -1 -1 -1 -1 -0 -1 -1 -2 -2 -1 -1 -0 -0 -1 -2 -2 -1 -1 -2 -2 -1 -0 -0 1 3 3 1 0 -0 -1
-0 -0 -0 -0 -1 -1 -1 -0 -1 -1 -0 -1 -1 -1 -2 -2 -2 -2 -2 -2 -2 -2 -2 -2 -2 -2 -2 -2 -2 -2 -2 -2 -2 -2 -1 -1 -1 -1 -1 -1 -1 -1 -1 -1 -1 -1 -2 -2 -2 -1 -0 0 -0 -1 -2 -1 -1 -2 -2 -1 -0 -0 -0 1 3 2 0 -1 -1
-0 -0 -0 -0 -0 -0 -0 -0 -0 -0 -0 -1 -1 -1 -1 -2 -2 -2 -2 -2 -2 -2 -1 -1 -2 -2 -2 -2 -2 -1 -1 -1 -1 -1 -1 -1 -1 -1 -1 -1 -1 -1 -1 -1 -1 -1 -2 -2 -2 -2 -1 -0 0 -0 -1 -1 -1 -2 -1 -1 0 0 -0 0 2 2 1 -1 -1
0 -0 -0 -1 -0 -0 0 -0 -0 -0 -0 -1 -1 -1 -1 -2 -2 -2 -2 -2 -2 -2 -1 -1 -1 -1 -2 -2 -2 -1 -1 -1 -1 -1 -1 -1 -1 -1 -1 -1 -1 -1 -1 -1 -1 -1 -2 -2 -2 -2 -2 -2 -0 0 0 -1 -2 -2 -2 -1 -0 0 1 1 1 1 1 0 -0
0 0 -0 -0 0 0 0 0 -0 -0 -0 -1 -1 -1 -1 -2 -2 -2 -2 -2 -2 -1 -1 -0 -0 -0 -1 -1 -2 -2 -1 -1 -1 -1 -1 -1 -1 -1 -1 -1 -1 -1 -1 -1 -0 -0 -1 -2 -2 -3 -3 -3 -1 0 1 0 -1 -1 -2 -2 -1 -0 0 1 1 1 0 -0 -0
0 0 0 1 0 0 0 0 -0 -0 -0 -1 -1 -1 -1 -1 -2 -1 -1 -1 -1 -1 -0 -0 -0 -0 -0 -0 -1 -1 -1 -1 -1 -1 -1 -1 -1 -1 -1 -1 -1 -1 -1 -1 -0 0 -0 -1 -2 -3 -3 -3 -2 -1 0 1 0 -0 -1 -1 -1 -1 -1 0 0 0 0 -1 -1
0 0 0 1 1 0 0 0 -0 -0 -0 -1 -2 -2 -1 -2 -1 -1 -1 -1 -1 -1 -0 -0 -0 -0 -0 0 -0 -1 -1 -1 -1 -1 -2 -2 -2 -1 -1 -1 -1 -1 -1 -1 -1 -0 0 -0 -1 -3 -3 -4 -3 -2 -0 0 0 0 -0 -0 -1 -1 -1 -1 -0 -0 -0 -0 -1
1 1 1 1 1 1 0 0 -0 -1 -1 -1 -2 -2 -2 -2 -1 -1 -1 -1 -1 -1 -0 -0 -0 -1 -1 -1 -1 -1 -1 -2 -2 -2 -2 -2 -2 -2 -2 -1 -1 -1 -1 -1 -1 -1 -1 -0 -1 -2 -2 -3 -2 -2 -1 -0 -0 -0 0 0 -0 -0 -1 -1 -1 -1 -1 -1 -1
1 1 1 1 1 1 0 -0 -1 -1 -1 -2 -2 -2 -2 -1 -1 -1 -0 -0 -1 -1 -1 -1 -1 -1 -1 -1 -1 -1 -1 -2 -2 -2 -2 -2 -2 -2 -2 -1 -1 -1 -1 -1 -1 -1 -1 -1 -1 -1 -1 -2 -2 -1 -1 -1 -1 -0 -0 -0 -0 -0 -1 -1 -1 -1 -1 -2 -1
1 1 1 1 1 0 0 -0 -1 -1 -2 -2 -2 -1 -1 -1 -1 -0 -0 -0 -1 -1 -1 -2 -1 -1 -1 -1 -1 -1 -1 -2 -2 -2 -2 -1 -1 -1 -1 -1 -1 -1 -0 -1 -1 -2 -2 -2 -1 -1 -1 -2 -1 -1 -1 -1 -1 -1 -0 -1 -1 -1 -1 -1 -1 -1 -1 -1 -1
1 1 1 1 1 0 -0 -1 -1 -2 -2 -2 -2 -1 -1 -1 -0 -0 -0 -1 -1 -1 -1 -2 -2 -2 -1 -1 -1 -1 -1 -1 -1 -2 -2 -1 -1 -1 -1 -1 -1 -1 -0 -1 -1 -2 -2 -3 -2 -2 -2 -2 -2 -1 -1 -1 -1 -1 -1 -1 -1 -1 -1 -1 -1 -0 0 0 -0
1 1 1 1 0 -0 -1 -2 -2 -2 -2 -2 -2 -1 -1 -0 -0 -0 -0 -1 -1 -1 -2 -2 -2 -2 -2 -2 -1 -0 -0 -0 -0 -1 -1 -1 -1 -1 -1 -1 -1 -1 -1 -1 -2 -2 -3 -3 -2 -2 -2 -2 -2 -2 -2 -1 -1 -0 -0 -0 -1 -1 -0 -0 -0 -0 -0 0 0
1 0 0 0 -0 -1 -1 -2 -2 -2 -2 -2 -1 -1 -0 -0 -0 -0 -0 -1 -1 -1 -2 -2 -2 -2 -2 -1 -1 -1 -0 0 1 0 -0 -1 -1 -1 -1 -2 -2 -2 -2 -2 -3 -4 -3 -3 -2 -2 -2 -2 -1 -1 -1 -1 -1 -1 -0 0 0 0 0 0 0 -0 -0 -0 -0
0 0 -0 -0 -1 -1 -2 -3 -3 -2 -2 -2 -1 -1 -0 -0 -0 -0 -0 -1 -1 -1 -1 -1 -1 -1 -0 -0 -0 -1 -1 -1 0 0 0 -0 -1 -2 -2 -2 -2 -3 -3 -3 -4 -4 -4 -4 -3 -2 -1 -2 -2 -1 -1 -1 -2 -2 -2 -1 -0 1 1 1 0 -0 -0 0 0
0 0 -0 -1 -1 -2 -3 -3 -3 -2 -2 -1 -1 -0 -0 -0 -0 -0 -0 -0 -1 -1 -1 -0 0 0 0 1 0 -0 -1 -2 -2 -1 -0 0 -0 -1 -2 -2 -2 -3 -3 -3 -3 -4 -5 -5 -5 -4 -3 -2 -2 -2 -1 -2 -2 -3 -3 -3 -2 -1 0 1 1 -0 -0 -0 0
0 -0 -0 -1 -1 -2 -3 -3 -2 -2 -1 -1 -0 -0 -0 -1 -1 -1 -1 -0 -0 0 0 0 0 1 1 1 0 -0 -1 -2 -2 -2 -2 -1 -1 -1 -1 -2 -2 -2 -3 -3 -3 -3 -3 -4 -5 -5 -5 -4 -3 -3 -2 -1 -2 -3 -4 -3 -4 -3 -2 -0 1 1 1 -0 -0
0 -0 -1 -1 -2 -2 -3 -3 -2 -2 -1 -1 -0 -0 -0 -1 -1 -0 -0 0 0 1 1 0 0 -0 -0 -0 -1 -1 -1 -2 -2 -3 -3 -3 -2 -1 -1 -1 -2 -2 -3 -3 -3 -2 -2 -2 -2 -3 -4 -5 -5 -4 -3 -2 -1 -2 -3 -3 -3 -3 -4 -3 -0 1 2 2 0
-0 -0 -1 -1 -2 -2 -2 -2 -2 -1 -1 -1 -0 -0 -0 -0 -0 0 0 0 1 1 1 0 -0 -1 -1 -1 -1 -1 -2 -2 -2 -3 -3 -3 -3 -2 -2 -1 -1 -2 -2 -3 -2 -2 -2 -1 -1 -1 -2 -4 -4 -4 -4 -4 -2 -2 -2 -2 -2 -2 -2 -3 -2 -0 1 3 2
-0 -1 -1 -2 -1 -2 -2 -2 -1 -1 -1 -0 -0 -0 0 0 1 1 0 0 0 0 -0 -0 -0 -0 -1 -1 -2 -2 -2 -2 -2 -3 -3 -3 -3 -2 -2 -1 -1 -1 -2 -2 -2 -2 -1 -1 -1 -1 -1 -2 -4 -4 -4 -4 -4 -3 -2 -2 -2 -2 -2 -2 -2 -2 -1 -0 1
-1 -2 -2 -1 -1 -1 -1 -1 -1 -1 -1 -0 0 0 1 1 1 1 0 -0 -1 -1 -1 -2 -1 -1 -1 -2 -2 -2 -2 -2 -2 -3 -3 -3 -2 -2 -1 -1 -1 -1 -1 -1 -1 -1 -1 -1 -1 -1 -1 -1 -3 -4 -4 -4 -4 -4 -3 -2 -2 -2 -2 -2 -1 -2 -2 -2 -1
-2 -2 -2 -1 -1 -1 -1 -1 -1 -0 -0 0 1 1 1 1 1 0 -1 -1 -1 -1 -1 -2 -2 -2 -2 -3 -3 -3 -2 -2 -2 -3 -3 -3 -2 -1 -0 -0 -0 -0 -1 -1 -1 -1 -1 -1 -1 -1 -1 -1 -2 -4 -4 -4 -4 -4 -4 -3 -2 -1 -1 -1 -1 -1 -2 -2 -3
-2 -2 -2 -1 -1 -0 -0 -0 0 0 1 1 1 1 1 0 -0 -1 -2 -3 -2 -2 -1 -1 -1 -1 -1 -1 -2 -2 -2 -2 -2 -3 -3 -4 -2 -1 -0 0 0 0 -0 -1 -1 -1 -1 -1 -1 -1 -1 -1 -2 -3 -4 -4 -4 -4 -4 -3 -2 -1 -1 -1 -1 -1 -1 -2 -3
-2 -2 -2 -1 -1 -0 0 1 1 1 1 1 1 0 -0 -0 -0 -1 -1 -2 -3 -3 -2 -2 -2 -2 -2 -2 -1 -1 -2 -2 -2 -2 -3 -3 -3 -1 -0 1 0 0 -0 -0 -1 -1 -1 -1 -2 -2 -2 -2 -2 -3 -4 -4 -4 -4 -4 -3 -2 -1 -1 -1 -1 -1 -1 -2 -3
-2 -2 -1 -1 -0 0 1 1 1 1 1 1 1 -0 -1 -2 -1 -1 -1 -2 -2 -2 -2 -3 -3 -3 -3 -4 -3 -3 -2 -2 -2 -2 -2 -2 -3 -2 -1 1 1 0 -0 -1 -1 -1 -2 -2 -2 -2 -2 -2 -3 -3 -3 -3 -4 -4 -4 -3 -1 -0 -0 -0 -0 -1 -1 -1 -2
-2 -2 -1 -0 0 1 1 2 2 1 1 0 -0 -1 -1 -2 -3 -3 -3 -2 -2 -2 -1 -2 -2 -2 -3 -3 -3 -4 -3 -2 -2 -2 -2 -2 -2 -2 -1 0 1 1 -1 -2 -1 -2 -2 -2 -3 -3 -3 -3 -3 -3 -3 -3 -3 -4 -4 -3 -1 -0 1 1 0 -0 -1 -1 -1
-2 -1 -1 0 1 1 1 1 1 0 -0 -1 -2 -2 -1 -1 -2 -3 -3 -3 -2 -2 -1 -1 -1 -2 -2 -2 -2 -3 -3 -3 -2 -2 -2 -2 -2 -2 -1 -0 1 1 0 -1 -2 -2 -2 -2 -3 -3 -4 -4 -4 -4 -3 -3 -3 -3 -3 -2 -1 -0 1 1 1 0 -0 -1 -1
-1 -1 -1 0 1 1 1 0 -1 -1 -2 -2 -2 -2 -2 -2 -2 -2 -3 -3 -3 -2 -2 -1 -1 -1 -2 -2 -2 -2 -2 -3 -3 -2 -2 -2 -3 -2 -2 -1 0 1 1 0 -1 -2 -2 -2 -3 -3 -4 -4 -4 -4 -4 -4 -4 -3 -2 -2 -1 0 1 1 1 1 1 0 -0
-1 -1 -1 -0 0 0 -0 -1 -2 -3 -3 -3 -3 -3 -3 -3 -2 -2 -3 -4 -4 -4 -3 -1 -1 -1 -2 -2 -2 -1 -1 -2 -4 -4 -3 -2 -3 -3 -3 -2 -0 1 1 0 -0 -1 -2 -2 -2 -3 -4 -5 -5 -4 -4 -4 -4 -3 -3 -2 -1 0 1 0 0 1 2 2 0
-1 -1 -1 -1 -1 -1 -2 -2 -3 -3 -3 -3 -2 -2 -2 -3 -2 -3 -3 -4 -4 -5 -4 -3 -2 -2 -2 -3 -2 -1 -0 -0 -2 -4 -4 -3 -2 -3 -4 -4 -1 0 1 0 -0 -1 -1 -2 -2 -2 -4 -5 -6 -5 -5 -5 -4 -4 -3 -2 -1 0 1 1 0 1 2 3 1
-1 -1 -1 -2 -2 -2 -3 -3 -3 -3 -4 -4 -3 -3 -3 -3 -3 -3 -3 -3 -4 -5 -5 -4 -3 -3 -3 -4 -4 -2 -1 1 -0 -2 -3 -3 -2 -3 -4 -4 -3 -1 1 1 0 -0 -1 -1 -1 -1 -2 -4 -6 -6 -6 -5 -4 -4 -3 -3 -2 -0 1 2 1 0 1 3 1
-1 -1 -1 -2 -3 -3 -3 -3 -3 -3 -3 -3 -3 -3 -3 -3 -3 -3 -2 -2 -3 -4 -4 -4 -4 -3 -3 -3 -4 -4 -2 0 1 -0 -1 -2 -2 -2 -2 -3 -3 -1 0 1 1 1 1 -0 -1 -1 -2 -3 -5 -6 -6 -6 -5 -4 -2 -2 -3 -2 -0 2 2 1 0 1 1
-1 -2 -2 -2 -2 -3 -3 -3 -3 -3 -2 -2 -3 -3 -4 -3 -3 -3 -3 -2 -2 -3 -4 -4 -4 -3 -3 -3 -4 -4 -4 -1 1 1 -0 -1 -1 -1 -1 -2 -2 -1 0 1 1 1 1 1 -0 -1 -2 -3 -5 -5 -6 -6 -5 -4 -3 -2 -2 -3 -2 -0 1 1 0 -1 -1
Height
3129 3129 3128 3128 3127 3126 3126 3125 3124 3123 3122 3121 3120 3119 3117 3117 3115 3114 3113 3112 3110 3108 3107 3106 3104 3103 3102 3100 3099 3097 3096 3095 3093 3092 3091 3089 3088 3086 3085 3083 3082 3080 3078 3077 3075 3074 3072 3070 3068 3067 3065 3064 3062 3061 3060 3058 3057 3055 3053 3052 3050 3049 3048 3047 3046 3045 3044 3042 3041
3127 3127 3126 3126 3125 3124 3123 3122 3122 3121 3119 3118 3117 3116 3115 3114 3112 3111 3110 3109 3107 3106 3104 3103 3102 3100 3099 3097 3096 3094 3093 3091 3090 3088 3087 3086 3084 3083 3081 3080 3078 3077 3075 3073 3072 3070 3069 3067 3065 3064 3062 3061 3060 3058 3057 3055 3053 3052 3050 3048 3047 3045 3044 3042 3041 3040 3039 3038 3037
3126 3125 3124 3123 3123 3122 3121 3120 3119 3118 3117 3116 3115 3113 3112 3111 3110 3109 3107 3106 3105 3103 3102 3100 3099 3097 3096 3094 3093 3091 3090 3088 3087 3085 3084 3082 3081 3079 3078 3076 3075 3073 3072 3070 3069 3067 3066 3064 3062 3061 3059 3058 3057 3055 3054 3052 3050 3048 3047 3045 3043 3042 3040 3038 3037 3036 3035 3033 3032
3123 3123 3122 3121 3120 3119 3118 3118 3117 3116 3115 3113 3112 3111 3110 3108 3107 3106 3105 3103 3102 3101 3099 3097 3096 3094 3093 3091 3090 3088 3087 3085 3083 3082 3080 3079 3077 3076 3075 3073 3072 3070 3069 3067 3066 3064 3062 3061 3059 3057 3056 3055 3053 3052 3050 3049 3047 3045 3043 3042 3040 3038 3037 3035 3033 3032 3030 3029 3027
3122 3121 3120 3119 3118 3117 3116 3115 3114 3113 3112 3111 3110 3109 3107 3106 3105 3104 3102 3101 3100 3098 3097 3095 3093 3092 3090 3088 3087 3085 3084 3082 3081 3079 3077 3076 3075 3073 3072 3070 3069 3067 3066 3064 3062 3061 3059 3057 3056 3054 3053 3052 3050 3048 3047 3045 3043 3042 3040 3038 3037 3035 3033 3031 3030 3028 3027 3025 3023
3119 3118 3117 3117 3116 3115 3114 3113 3112 3111 3110 3109 3107 3107 3105 3104 3103 3102 3100 3099 3097 3096 3094 3092 3091 3089 3087 3086 3084 3082 3081 3079 3078 3076 3075 3073 3072 3070 3069 3067 3066 3064 3062 3061 3059 3057 3056 3054 3052 3051 3050 3048 3047 3045 3043 3042 3040 3038 3036 3035 3033 3032 3030 3028 3027 3025 3023 3021 3020
3117 3116 3115 3114 3113 3112 3112 3111 3109 3108 3107 3106 3105 3104 3103 3102 3101 3099 3098 3096 3095 3093 3091 3090 3088 3086 3084 3083 3081 3080 3078 3076 3075 3073 3072 3070 3068 3067 3066 3064 3062 3061 3059 3058 3056 3054 3052 3051 3049 3047 3046 3045 3043 3041 3040 3038 3036 3034 3032 3031 3030 3028 3027 3025 3023 3022 3020 3018 3017
3115 3114 3113 3112 3111 3110 3109 3108 3107 3106 3105 3104 3103 3102 3100 3099 3098 3097 3095 3093 3092 3090 3088 3087 3085 3083 3081 3080 3078 3076 3075 3073 3072 3070 3068 3067 3065 3064 3062 3061 3059 3057 3056 3054 3052 3051 3049 3047 3046 3044 3042 3041 3039 3037 3036 3034 3032 3030 3028 3027 3025 3024 3023 3022 3020 3018 3017 3015 3013
3113 3112 3111 3110 3109 3108 3107 3106 3105 3104 3103 3102 3100 3099 3098 3097 3095 3094 3092 3091 3089 3087 3085 3083 3082 3080 3078 3077 3075 3073 3071 3070 3068 3067 3065 3064 3062 3061 3059 3057 3056 3054 3052 3051 3049 3047 3045 3044 3042 3040 3038 3037 3035 3033 3031 3030 3027 3026 3024 3022 3021 3020 3019 3017 3016 3014 3012 3011 3010
3111 3110 3109 3108 3107 3106 3105 3104 3102 3101 3100 3099 3098 3097 3095 3094 3092 3091 3089 3087 3086 3084 3082 3080 3078 3077 3075 3073 3072 3070 3068 3067 3065 3063 3062 3060 3059 3057 3056 3054 3052 3051 3049 3047 3045 3043 3042 3040 3038 3036 3034 3032 3031 3028 3027 3025 3023 3021 3020 3018 3017 3015 3014 3013 3012 3010 3008 3007 3005
3109 3108 3107 3106 3105 3103 3102 3101 3100 3099 3098 3097 3095 3094 3092 3091 3089 3087 3086 3084 3082 3081 3079 3077 3075 3073 3072 3070 3068 3067 3065 3063 3062 3060 3058 3057 3055 3054 3052 3050 3048 3047 3045 3043 3042 3039 3037 3036 3034 3032 3030 3028 3027 3024 3022 3021 3019 3017 3015 3014 3012 3011 3009 3008 3007 3006 3004 3002 3001
3107 3106 3105 3103 3102 3101 3100 3099 3098 3097 3095 3094 3092 3091 3090 3088 3086 3084 3082 3081 3079 3077 3076 3074 3072 3070 3069 3067 3066 3064 3062 3060 3059 3057 3055 3054 3052 3050 3048 3047 3045 3043 3041 3039 3037 3036 3033 3032 3030 3028 3026 3024 3022 3020 3018 3016 3014 3012 3011 3009 3008 3007 3005 3004 3003 3001 3000 2998 2997
3105 3103 3102 3101 3100 3099 3098 3097 3095 3094 3093 3091 3090 3088 3087 3085 3083 3081 3079 3078 3076 3074 3072 3071 3069 3067 3066 3064 3062 3061 3059 3057 3056 3054 3052 3050 3049 3047 3045 3043 3041 3039 3037 3036 3034 3032 3030 3028 3026 3024 3022 3020 3018 3016 3014 3012 3010 3008 3006 3005 3003 3002 3001 2999 2998 2997 2995 2993 2992
3102 3101 3100 3099 3098 3097 3095 3094 3093 3092 3090 3089 3087 3086 3084 3082 3080 3078 3077 3075 3073 3071 3070 3068 3066 3065 3063 3061 3059 3057 3056 3054 3052 3051 3049 3047 3045 3043 3042 3040 3038 3036 3034 3032 3030 3028 3026 3024 3022 3019 3017 3015 3013 3012 3010 3007 3006 3004 3002 3000 2999 2997 2996 2995 2994 2992 2991 2989 2988
3100 3099 3098 3097 3095 3094 3093 3092 3090 3089 3087 3086 3084 3083 3081 3079 3077 3075 3073 3072 3070 3068 3067 3065 3063 3062 3060 3058 3056 3054 3052 3051 3049 3047 3045 3044 3042 3040 3038 3036 3034 3032 3030 3028 3026 3024 3022 3020 3017 3015 3013 3011 3009 3007 3005 3003 3001 2999 2997 2996 2994 2993 2992 2990 2989 2988 2986 2985 2983
3097 3097 3095 3094 3093 3092 3090 3089 3087 3086 3085 3083 3082 3080 3078 3076 3074 3072 3070 3068 3067 3065 3063 3062 3060 3058 3057 3055 3053 3051 3049 3047 3046 3044 3042 3040 3038 3036 3034 3032 3030 3028 3027 3024 3022 3021 3018 3016 3013 3011 3009 3007 3005 3003 3001 2999 2997 2995 2993 2992 2990 2988 2987 2986 2985 2983 2982 2980 2979
3095 3094 3093 3092 3091 3089 3088 3087 3085 3083 3082 3080 3078 3077 3075 3073 3071 3069 3067 3066 3064 3062 3061 3059 3057 3055 3053 3052 3050 3048 3046 3044 3042 3040 3038 3036 3034 3032 3031 3029 3027 3025 3022 3021 3018 3016 3014 3012 3009 3007 3005 3002 3000 2998 2996 2994 2992 2991 2989 2987 2986 2984 2983 2982 2980 2979 2977 2976 2975
3093 3092 3091 3089 3088 3087 3085 3084 3082 3081 3079 3077 3075 3073 3072 3070 3068 3066 3064 3062 3061 3059 3057 3056 3054 3052 3050 3048 3047 3045 3043 3041 3039 3037 3035 3033 3031 3029 3027 3025 3023 3021 3018 3016 3014 3012 3010 3007 3005 3003 3000 2998 2996 2994 2992 2990 2988 2986 2985 2983 2982 2981 2979 2978 2977 2975 2974 2972 2971
3091 3089 3088 3087 3086 3084 3082 3081 3079 3078 3076 3074 3072 3070 3068 3067 3065 3063 3062 3060 3058 3056 3054 3052 3051 3049 3047 3045 3043 3042 3039 3037 3035 3033 3032 3029 3027 3025 3023 3021 3019 3017 3014 3012 3010 3007 3005 3003 3001 2998 2996 2994 2992 2990 2987 2986 2984 2982 2981 2979 2978 2977 2975 2974 2973 2971 2970 2969 2968
3088 3087 3086 3084 3083 3081 3080 3078 3077 3075 3073 3071 3069 3067 3066 3064 3062 3060 3058 3057 3055 3053 3051 3049 3047 3046 3044 3042 3040 3038 3036 3034 3032 3030 3028 3026 3024 3022 3019 3017 3015 3012 3010 3008 3006 3003 3001 2998 2996 2994 2992 2989 2987 2985 2983 2982 2980 2978 2977 2976 2975 2973 2972 2971 2969 2968 2967 2966 2965
3086 3085 3083 3082 3080 3079 3077 3075 3073 3072 3070 3068 3066 3064 3062 3061 3059 3057 3056 3054 3052 3050 3048 3046 3044 3042 3041 3039 3037 3035 3033 3031 3029 3027 3024 3022 3020 3018 3015 3013 3011 3008 3006 3004 3001 2999 2996 2994 2992 2989 2987 2985 2983 2981 2980 2978 2977 2975 2974 2973 2972 2970 2969 2967 2966 2965 2964 2963 2962
3083 3082 3081 3079 3077 3076 3074 3072 3070 3068 3067 3065 3063 3062 3060 3058 3056 3055 3053 3051 3049 3047 3045 3043 3041 3039 3037 3036 3034 3032 3030 3027 3025 3023 3021 3018 3016 3014 3011 3009 3007 3004 3002 2999 2997 2994 2992 2990 2987 2985 2983 2981 2979 2977 2976 2975 2973 2972 2971 2970 2969 2967 2966 2965 2964 2962 2961 2960 2959
3081 3079 3078 3076 3075 3073 3071 3069 3067 3066 3064 3062 3060 3058 3057 3055 3053 3052 3050 3048 3046 3044 3042 3040 3038 3036 3034 3032 3030 3028 3026 3024 3022 3019 3017 3014 3012 3010 3007 3005 3002 3000 2997 2995 2993 2990 2988 2986 2983 2981 2979 2977 2976 2974 2972 2971 2970 2969 2968 2967 2966 2965 2963 2962 2961 2960 2959 2957 2957
3078 3077 3075 3073 3072 3070 3068 3066 3064 3062 3061 3059 3057 3056 3054 3052 3051 3049 3047 3045 3043 3041 3039 3037 3035 3033 3031 3029 3027 3024 3022 3020 3017 3015 3013 3011 3008 3006 3003 3001 2998 2996 2994 2991 2989 2986 2984 2981 2979 2977 2975 2974 2972 2971 2969 2968 2967 2965 2964 2963 2962 2962 2961 2960 2959 2957 2956 2955 2954
3075 3074 3072 3071 3069 3067 3065 3063 3061 3059 3058 3056 3054 3053 3051 3049 3047 3046 3044 3042 3040 3038 3036 3034 3032 3030 3028 3026 3023 3021 3018 3016 3013 3011 3009 3007 3005 3002 3000 2997 2995 2992 2990 2987 2985 2983 2980 2978 2976 2973 2972 2970 2968 2967 2966 2965 2964 2963 2962 2960 2959 2959 2958 2957 2956 2955 2954 2952 2951
3072 3071 3069 3067 3066 3064 3062 3060 3058 3057 3055 3053 3052 3050 3048 3046 3044 3042 3041 3039 3037 3035 3033 3031 3028 3026 3024 3022 3020 3017 3015 3012 3010 3007 3005 3003 3001 2998 2996 2994 2991 2989 2986 2984 2982 2980 2977 2975 2973 2971 2969 2967 2966 2964 2963 2962 2962 2960 2959 2958 2957 2956 2955 2954 2953 2952 2951 2950 2948
3070 3068 3066 3065 3063 3061 3059 3057 3055 3053 3052 3050 3048 3047 3045 3043 3041 3039 3037 3036 3034 3032 3029 3027 3025 3022 3020 3018 3016 3013 3011 3009 3006 3004 3001 2999 2997 2994 2992 2990 2987 2985 2983 2981 2978 2977 2975 2973 2971 2969 2967 2965 2963 2962 2961 2960 2959 2958 2957 2956 2955 2953 2952 2951 2950 2949 2948 2947 2945
3067 3065 3063 3062 3060 3058 3056 3054 3052 3051 3049 3047 3046 3044 3042 3040 3038 3037 3034 3032 3030 3028 3026 3023 3021 3019 3017 3014 3012 3010 3007 3005 3002 3000 2998 2995 2993 2991 2988 2986 2984 2982 2980 2978 2976 2974 2972 2970 2968 2967 2965 2963 2961 2960 2958 2957 2957 2956 2954 2953 2952 2951 2950 2948 2947 2946 2945 2943 2942
3064 3062 3060 3058 3057 3055 3053 3051 3050 3048 3046 3044 3043 3041 3039 3037 3035 3033 3031 3029 3026 3024 3022 3020 3018 3016 3013 3011 3008 3006 3004 3002 2999 2997 2994 2992 2989 2987 2985 2983 2981 2979 2977 2975 2973 2971 2969 2968 2966 2965 2963 2961 2959 2957 2956 2955 2954 2953 2952 2951 2949 2948 2947 2945 2944 2942 2941 2940 2939
3061 3059 3057 3055 3054 3052 3050 3048 3047 3045 3043 3042 3040 3038 3036 3034 3032 3030 3027 3025 3022 3020 3018 3016 3014 3012 3010 3007 3005 3002 3000 2998 2995 2993 2990 2988 2986 2984 2982 2980 2978 2976 2974 2972 2970 2969 2967 2965 2964 2962 2961 2959 2957 2955 2954 2953 2952 2950 2949 2948 2947 2945 2944 2942 2941 2939 2938 2936 2935
3057 3056 3054 3052 3051 3049 3047 3046 3044 3042 3041 3039 3037 3035 3032 3030 3028 3026 3023 3021 3019 3017 3015 3013 3011 3008 3006 3004 3001 2999 2997 2994 2992 2989 2987 2985 2982 2981 2979 2977 2975 2973 2972 2970 2968 2966 2965 2963 2962 2960 2958 2957 2955 2953 2952 2950 2949 2947 2946 2945 2943 2942 2941 2939 2938 2936 2935 2933 2931
3054 3052 3051 3049 3048 3046 3045 3043 3041 3039 3037 3036 3033 3031 3029 3027 3024 3022 3020 3017 3015 3013 3011 3009 3007 3005 3002 3000 2998 2996 2993 2991 2988 2986 2984 2981 2979 2977 2976 2974 2973 2971 2969 2967 2966 2964 2962 2961 2959 2958 2956 2954 2952 2951 2949 2947 2946 2945 2943 2942 2940 2939 2937 2936 2934 2933 2931 2930 2928
3051 3050 3048 3046 3045 3043 3042 3040 3038 3036 3034 3032 3030 3027 3025 3023 3021 3019 3017 3014 3012 3010 3008 3006 3003 3001 2999 2997 2994 2992 2990 2987 2985 2983 2981 2978 2976 2974 2973 2972 2970 2968 2967 2965 2963 2962 2960 2958 2957 2955 2953 2952 2950 2948 2947 2945 2943 2942 2940 2939 2937 2936 2934 2933 2931 2930 2928 2927 2925
3048 3047 3045 3044 3042 3041 3039 3037 3035 3033 3030 3028 3026 3024 3022 3019 3017 3015 3013 3011 3009 3007 3005 3002 3000 2998 2996 2993 2991 2989 2986 2984 2982 2980 2977 2975 2973 2972 2970 2969 2967 2966 2965 2963 2961 2959 2957 2956 2954 2952 2951 2949 2947 2946 2944 2942 2941 2939 2937 2936 2934 2933 2931 2930 2928 2927 2925 2923 2922
3046 3044 3042 3041 3039 3037 3035 3033 3031 3029 3027 3024 3022 3020 3018 3016 3014 3012 3010 3008 3006 3004 3002 3000 2997 2995 2992 2990 2988 2985 2983 2981 2979 2977 2975 2972 2971 2969 2967 2967 2965 2964 2962 2961 2959 2957 2955 2953 2952 2950 2948 2946 2944 2943 2941 2939 2937 2936 2934 2932 2931 2929 2928 2927 2925 2923 2922 2921 2919
3043 3041 3039 3037 3036 3034 3032 3029 3027 3025 3023 3021 3019 3017 3015 3013 3011 3009 3007 3005 3002 3001 2999 2997 2994 2992 2990 2987 2985 2982 2980 2978 2976 2973 2972 2970 2968 2966 2965 2964 2963 2962 2960 2958 2956 2954 2953 2951 2949 2947 2945 2943 2942 2940 2938 2937 2935 2933 2931 2929 2928 2926 2925 2923 2922 2920 2919 2917 2916
3040 3038 3036 3034 3032 3030 3028 3026 3023 3022 3019 3017 3016 3014 3012 3010 3008 3006 3004 3002 2999 2997 2995 2993 2991 2989 2986 2984 2982 2980 2977 2975 2973 2971 2968 2967 2965 2963 2962 2961 2960 2959 2958 2956 2954 2952 2950 2948 2946 2944 2942 2940 2938 2937 2935 2933 2932 2930 2928 2926 2924 2923 2921 2920 2918 2917 2916 2914 2913
3037 3035 3032 3030 3028 3026 3024 3022 3020 3018 3016 3015 3013 3011 3009 3007 3005 3003 3000 2998 2996 2993 2992 2990 2987 2985 2983 2981 2978 2977 2974 2972 2970 2968 2966 2964 2962 2961 2959 2958 2957 2956 2955 2953 2951 2949 2947 2946 2943 2942 2939 2937 2935 2933 2932 2930 2928 2927 2925 2923 2921 2919 2918 2916 2915 2913 2912 2911 2911
3033 3031 3029 3027 3025 3023 3021 3019 3017 3015 3013 3011 3010 3008 3006 3004 3002 2999 2997 2995 2992 2990 2988 2986 2984 2982 2980 2977 2975 2973 2972 2970 2968 2966 2963 2962 2960 2958 2957 2955 2954 2953 2952 2951 2949 2947 2945 2943 2941 2939 2937 2934 2932 2930 2929 2927 2925 2923 2921 2920 2918 2916 2914 2913 2912 2910 2909 2908 2907
3030 3028 3026 3024 3022 3020 3018 3016 3014 3012 3010 3008 3006 3004 3002 3000 2998 2996 2994 2992 2989 2987 2985 2982 2981 2979 2977 2974 2972 2970 2969 2967 2966 2964 2962 2959 2958 2956 2955 2953 2951 2950 2949 2948 2946 2944 2942 2940 2938 2936 2934 2931 2929 2927 2925 2923 2922 2920 2918 2916 2914 2912 2911 2909 2908 2907 2906 2904 2904
3027 3025 3022 3021 3019 3017 3015 3013 3011 3009 3007 3005 3003 3001 2999 2997 2995 2993 2991 2988 2986 2984 2982 2979 2977 2976 2974 2972 2969 2967 2966 2964 2963 2961 2959 2957 2956 2954 2952 2951 2949 2947 2946 2945 2943 2942 2939 2937 2935 2933 2931 2928 2926 2924 2922 2920 2918 2916 2914 2912 2911 2909 2907 2906 2904 2903 2902 2901 2900